Location: *
(46.0770°N, 1.6444°E)
Time: 23:33:20
(UTC+00:00)

SL-08 RB Rocket - Pass Details

Date: 16 September 2019
Orbit: 646 x 685 km, 97.9° (Epoch: 17 October)

Event Time Altitude Azimuth Distance (km) Brightness Sun altitude
Exits shadow 19:31:33 26° 122° (ESE) 1,339 4.7 -15.7°
Maximum altitude 19:33:39 41° 69° (ENE) 989 4.2 -16.0°
Drops below altitude 10° 19:38:02 10° 0° (N) 2,143 6.6 -16.7°
Sets 19:40:23 0° 354° (N) 3,062 7.5 -17.1°
